JTC427 TTCP-TDPD

Flight info

Callsign JTC427
Flight time 0h 46m
Altitude 41000
Route VODAN DCT TGPY DCT GOTER DCT BNE/N0431F230 A324 FOF DCT KAROT
Aircraft CL60/M-SADE3FGHIJ3J4J7P2RWXY/HB1D1

Departure

Time 2026-04-23 00:17
Airport A.N.R. Robinson International Airport (TTCP)

Arrival

Time 2026-04-23 01:04
Airport Douglas-Charles Airport (TDPD)
Time Latitude Longitude Altitude Speed Heading
2026-04-23 00:10 11.15190 -60.84150 42 ft 0 kts
2026-04-23 00:16 11.15196 -60.84155 42 ft 3 kts 282°
2026-04-23 00:16 11.15152 -60.84155 43 ft 8 kts 158°
2026-04-23 00:16 11.15094 -60.84141 44 ft 10 kts 227°
2026-04-23 00:17 11.15032 -60.84147 44 ft 11 kts 100°
2026-04-23 00:17 11.15019 -60.83896 46 ft 93 kts 94°
2026-04-23 00:17 11.14938 -60.82839 225 ft 187 kts 94°
2026-04-23 00:17 11.14909 -60.81648 1924 ft 169 kts 86°
2026-04-23 00:18 11.15006 -60.80811 3825 ft 128 kts 75°
2026-04-23 00:18 11.15235 -60.79870 4691 ft 156 kts 77°
2026-04-23 00:18 11.15438 -60.78807 5830 ft 160 kts 78°
2026-04-23 00:18 11.15635 -60.77738 6955 ft 158 kts 78°
2026-04-23 00:19 11.15851 -60.76568 7613 ft 187 kts 78°
2026-04-23 00:19 11.16121 -60.75250 8564 ft 196 kts 71°
2026-04-23 00:19 11.16950 -60.74113 9187 ft 221 kts 33°
2026-04-23 00:19 11.18541 -60.73734 9590 ft 251 kts 352°
2026-04-23 00:20 11.20126 -60.74516 10329 ft 262 kts 316°
2026-04-23 00:20 11.21096 -60.76190 10780 ft 295 kts 288°
2026-04-23 00:20 11.21757 -60.78255 11385 ft 322 kts 289°
2026-04-23 00:20 11.22570 -60.80450 12368 ft 333 kts 292°
2026-04-23 00:21 11.23507 -60.82602 13416 ft 339 kts 295°
2026-04-23 00:21 11.24606 -60.84775 14433 ft 345 kts 298°
2026-04-23 00:21 11.25852 -60.86914 15360 ft 352 kts 302°
2026-04-23 00:21 11.27248 -60.89011 15921 ft 360 kts 306°
2026-04-23 00:22 11.28814 -60.91038 16169 ft 362 kts 310°
2026-04-23 00:22 11.30473 -60.92987 16259 ft 361 kts 315°
2026-04-23 00:22 11.32506 -60.94492 16258 ft 359 kts 333°
2026-04-23 00:22 11.34910 -60.95246 16252 ft 358 kts 352°
2026-04-23 00:23 11.37417 -60.95278 16243 ft 359 kts
2026-04-23 00:23 11.39892 -60.95164 16243 ft 359 kts
2026-04-23 00:23 11.42400 -60.95055 16245 ft 359 kts
2026-04-23 00:23 11.44940 -60.94946 16246 ft 359 kts
2026-04-23 00:24 11.47441 -60.94839 16247 ft 359 kts
2026-04-23 00:24 11.49957 -60.94731 16247 ft 359 kts
2026-04-23 00:24 11.52481 -60.94622 16247 ft 359 kts
2026-04-23 00:24 11.55016 -60.94514 16323 ft 372 kts
2026-04-23 00:25 11.57679 -60.94401 17168 ft 379 kts
2026-04-23 00:25 11.60270 -60.94290 18328 ft 375 kts
2026-04-23 00:25 11.62912 -60.94178 19319 ft 376 kts
2026-04-23 00:25 11.65582 -60.94064 20194 ft 380 kts
2026-04-23 00:26 11.68226 -60.93951 20972 ft 386 kts
2026-04-23 00:26 11.70969 -60.93834 21741 ft 391 kts
2026-04-23 00:26 11.73697 -60.93718 22498 ft 396 kts
2026-04-23 00:26 11.76455 -60.93601 23237 ft 401 kts
2026-04-23 00:27 11.79307 -60.93480 23972 ft 406 kts
2026-04-23 00:27 11.82205 -60.93356 24704 ft 411 kts
2026-04-23 00:27 11.85070 -60.93235 25398 ft 416 kts
2026-04-23 00:27 11.88049 -60.93108 26087 ft 420 kts
2026-04-23 00:28 11.91016 -60.92982 26724 ft 425 kts
2026-04-23 00:28 11.94007 -60.92855 27343 ft 430 kts
2026-04-23 00:28 11.97078 -60.92724 27944 ft 434 kts
2026-04-23 00:28 12.00166 -60.92593 28517 ft 439 kts
2026-04-23 00:29 12.03275 -60.92460 29057 ft 443 kts
2026-04-23 00:29 12.06409 -60.92327 29507 ft 450 kts
2026-04-23 00:29 12.09589 -60.92192 29951 ft 455 kts
2026-04-23 00:29 12.12833 -60.92054 30389 ft 460 kts
2026-04-23 00:30 12.16080 -60.91915 30776 ft 466 kts
2026-04-23 00:30 12.19330 -60.91777 31174 ft 470 kts
2026-04-23 00:30 12.22648 -60.91636 31535 ft 475 kts
2026-04-23 00:30 12.26023 -60.91491 31906 ft 480 kts
2026-04-23 00:31 12.29405 -60.91347 32222 ft 485 kts
2026-04-23 00:31 12.32807 -60.91202 32552 ft 489 kts
2026-04-23 00:31 12.36235 -60.91056 32950 ft 491 kts
2026-04-23 00:31 12.39678 -60.90908 33559 ft 489 kts
2026-04-23 00:32 12.43121 -60.90760 34258 ft 485 kts
2026-04-23 00:32 12.46452 -60.90617 34922 ft 482 kts
2026-04-23 00:32 12.49852 -60.90471 35546 ft 479 kts
2026-04-23 00:32 12.53197 -60.90328 36111 ft 477 kts
2026-04-23 00:33 12.56535 -60.90185 36560 ft 477 kts
2026-04-23 00:33 12.59833 -60.90044 37001 ft 476 kts
2026-04-23 00:33 12.63171 -60.89901 37405 ft 476 kts
2026-04-23 00:33 12.66532 -60.89758 37810 ft 476 kts
2026-04-23 00:34 12.69838 -60.89616 38153 ft 476 kts
2026-04-23 00:34 12.73201 -60.89473 38488 ft 477 kts
2026-04-23 00:34 12.76542 -60.89330 38870 ft 476 kts
2026-04-23 00:34 12.79888 -60.89187 39273 ft 475 kts
2026-04-23 00:35 12.83192 -60.89045 39660 ft 474 kts
2026-04-23 00:35 12.86521 -60.88902 40043 ft 473 kts 360°
2026-04-23 00:35 12.89844 -60.88760 40410 ft 472 kts
2026-04-23 00:35 12.93139 -60.88619 40787 ft 471 kts
2026-04-23 00:36 12.96437 -60.88478 40996 ft 472 kts
2026-04-23 00:36 13.03117 -60.88192 40970 ft 480 kts
2026-04-23 00:37 13.09881 -60.87904 40970 ft 483 kts
2026-04-23 00:37 13.16661 -60.88392 40968 ft 480 kts 348°
2026-04-23 00:38 13.23276 -60.89482 40975 ft 479 kts 348°
2026-04-23 00:38 13.29925 -60.90572 40975 ft 478 kts 348°
2026-04-23 00:39 13.36534 -60.91656 40976 ft 478 kts 348°
2026-04-23 00:39 13.43182 -60.92748 40978 ft 477 kts 348°
2026-04-23 00:40 13.49795 -60.93834 40978 ft 477 kts 348°
2026-04-23 00:40 13.56470 -60.94931 40542 ft 481 kts 348°
2026-04-23 00:40 13.59831 -60.95483 39908 ft 476 kts 348°
2026-04-23 00:41 13.63080 -60.96016 39347 ft 472 kts 348°
2026-04-23 00:41 13.66344 -60.96553 38779 ft 471 kts 348°
2026-04-23 00:41 13.69622 -60.97092 38221 ft 472 kts 348°
2026-04-23 00:41 13.72911 -60.97622 37573 ft 472 kts 349°
2026-04-23 00:42 13.76223 -60.97901 36983 ft 474 kts 354°
2026-04-23 00:42 13.79552 -60.98069 36367 ft 473 kts 354°
2026-04-23 00:42 13.82894 -60.98241 35722 ft 473 kts 354°
2026-04-23 00:42 13.86204 -60.98413 35104 ft 472 kts 354°
2026-04-23 00:43 13.89521 -60.98586 34474 ft 472 kts 354°
2026-04-23 00:43 13.92853 -60.98759 33829 ft 472 kts 354°
2026-04-23 00:43 13.96139 -60.98931 33213 ft 471 kts 354°
2026-04-23 00:43 13.99441 -60.99105 32599 ft 472 kts 354°
2026-04-23 00:44 14.02749 -60.99279 31951 ft 473 kts 354°
2026-04-23 00:44 14.06036 -60.99452 31325 ft 473 kts 353°
2026-04-23 00:44 14.09362 -60.99627 30675 ft 474 kts 353°
2026-04-23 00:44 14.12671 -60.99802 30039 ft 474 kts 353°
2026-04-23 00:45 14.16000 -60.99978 29394 ft 475 kts 353°
2026-04-23 00:45 14.19337 -61.00155 28755 ft 474 kts 353°
2026-04-23 00:45 14.22666 -61.00331 28135 ft 470 kts 353°
2026-04-23 00:45 14.25929 -61.00504 27520 ft 465 kts 354°
2026-04-23 00:46 14.29175 -61.00677 26912 ft 459 kts 354°
2026-04-23 00:46 14.32375 -61.00847 26293 ft 453 kts 354°
2026-04-23 00:46 14.35534 -61.01016 25690 ft 448 kts 354°
2026-04-23 00:46 14.38626 -61.01181 25097 ft 443 kts 354°
2026-04-23 00:47 14.41747 -61.01348 24501 ft 438 kts 354°
2026-04-23 00:47 14.44781 -61.01510 23921 ft 433 kts 354°
2026-04-23 00:47 14.47788 -61.01671 23355 ft 428 kts 354°
2026-04-23 00:47 14.50779 -61.01831 22778 ft 423 kts 354°
2026-04-23 00:48 14.53730 -61.01989 22218 ft 419 kts 354°
2026-04-23 00:48 14.56667 -61.02147 21656 ft 415 kts 354°
2026-04-23 00:48 14.59581 -61.02304 21101 ft 412 kts 354°
2026-04-23 00:48 14.62502 -61.02461 20555 ft 408 kts 354°
2026-04-23 00:49 14.65357 -61.02615 20027 ft 405 kts 354°
2026-04-23 00:49 14.68206 -61.02769 19492 ft 402 kts 355°
2026-04-23 00:49 14.71019 -61.02921 18947 ft 399 kts 355°
2026-04-23 00:49 14.73820 -61.03072 18413 ft 395 kts 355°
2026-04-23 00:50 14.76561 -61.03220 17889 ft 393 kts 355°
2026-04-23 00:50 14.79289 -61.03368 17366 ft 389 kts 355°
2026-04-23 00:50 14.82023 -61.03516 16843 ft 387 kts 355°
2026-04-23 00:50 14.84714 -61.03661 16325 ft 383 kts 355°
2026-04-23 00:51 14.87386 -61.03805 15814 ft 380 kts 355°
2026-04-23 00:51 14.90007 -61.03947 15310 ft 377 kts 355°
2026-04-23 00:51 14.92631 -61.04089 14810 ft 374 kts 356°
2026-04-23 00:51 14.95225 -61.04229 14313 ft 371 kts 356°
2026-04-23 00:52 14.97819 -61.04369 13830 ft 364 kts 356°
2026-04-23 00:52 15.00329 -61.04504 13371 ft 355 kts 356°
2026-04-23 00:52 15.02769 -61.04636 12924 ft 346 kts 356°
2026-04-23 00:52 15.05182 -61.04766 12456 ft 337 kts 356°
2026-04-23 00:53 15.07484 -61.04890 12018 ft 329 kts 356°
2026-04-23 00:53 15.09781 -61.05015 11577 ft 322 kts 356°
2026-04-23 00:53 15.11987 -61.05134 11155 ft 315 kts 356°
2026-04-23 00:53 15.14179 -61.05253 10739 ft 309 kts 356°
2026-04-23 00:54 15.16304 -61.05368 10330 ft 304 kts 356°
2026-04-23 00:54 15.18419 -61.05483 9927 ft 300 kts 356°
2026-04-23 00:54 15.20505 -61.05595 9527 ft 295 kts 356°
2026-04-23 00:54 15.22576 -61.05708 9133 ft 290 kts 356°
2026-04-23 00:55 15.24604 -61.05817 8745 ft 286 kts 356°
2026-04-23 00:55 15.26569 -61.05924 8439 ft 279 kts 356°
2026-04-23 00:55 15.28526 -61.06030 7997 ft 283 kts 357°
2026-04-23 00:55 15.30506 -61.06138 7584 ft 279 kts 357°
2026-04-23 00:56 15.32439 -61.06243 7231 ft 275 kts 357°
2026-04-23 00:56 15.34380 -61.06348 6865 ft 274 kts 357°
2026-04-23 00:56 15.36302 -61.06452 6502 ft 273 kts 357°
2026-04-23 00:56 15.38207 -61.06556 6144 ft 272 kts 357°
2026-04-23 00:57 15.40099 -61.06658 5786 ft 270 kts 358°
2026-04-23 00:57 15.41964 -61.06759 5426 ft 268 kts 358°
2026-04-23 00:57 15.43824 -61.06860 5072 ft 266 kts 358°
2026-04-23 00:57 15.45666 -61.07062 4723 ft 265 kts 346°
2026-04-23 00:58 15.47433 -61.07687 4374 ft 264 kts 340°
2026-04-23 00:58 15.49158 -61.08343 4026 ft 263 kts 341°
2026-04-23 00:58 15.50873 -61.08990 3673 ft 262 kts 341°
2026-04-23 00:58 15.52603 -61.09643 3327 ft 261 kts 341°
2026-04-23 00:59 15.54312 -61.10287 2982 ft 255 kts 341°
2026-04-23 00:59 15.55976 -61.10915 2647 ft 249 kts 341°
2026-04-23 00:59 15.57566 -61.11615 2395 ft 237 kts 330°
2026-04-23 00:59 15.58802 -61.12560 2414 ft 207 kts 319°
2026-04-23 01:00 15.59565 -61.13750 2308 ft 191 kts 293°
2026-04-23 01:00 15.59775 -61.15091 2128 ft 185 kts 269°
2026-04-23 01:00 15.59520 -61.16389 2025 ft 179 kts 252°
2026-04-23 01:00 15.59086 -61.17618 1993 ft 182 kts 250°
2026-04-23 01:01 15.58643 -61.18863 1968 ft 183 kts 251°
2026-04-23 01:01 15.58196 -61.20127 1831 ft 186 kts 251°
2026-04-23 01:01 15.57759 -61.21364 1596 ft 180 kts 251°
2026-04-23 01:01 15.57335 -61.22561 1380 ft 168 kts 251°
2026-04-23 01:02 15.56943 -61.23669 1141 ft 157 kts 251°
2026-04-23 01:02 15.56593 -61.24657 963 ft 137 kts 251°
2026-04-23 01:02 15.56260 -61.25598 780 ft 138 kts 251°
2026-04-23 01:02 15.55935 -61.26519 605 ft 133 kts 251°
2026-04-23 01:03 15.55613 -61.27429 488 ft 130 kts 251°
2026-04-23 01:03 15.55295 -61.28325 522 ft 135 kts 251°
2026-04-23 01:03 15.54969 -61.29242 117 ft 135 kts 251°
2026-04-23 01:03 15.54681 -61.30062 74 ft 102 kts 251°
2026-04-23 01:04 15.54538 -61.30489 100 ft 24 kts 264°
2026-04-23 01:04 15.54527 -61.30518 102 ft 8 kts 58°
2026-04-23 01:04 15.54581 -61.30366 93 ft 19 kts 69°
2026-04-23 01:05 15.54643 -61.30201 83 ft 28 kts 72°
2026-04-23 01:05 15.54648 -61.30058 73 ft 16 kts 117°
2026-04-23 01:05 15.54624 -61.30000 68 ft 6 kts 79°
2026-04-23 01:05 15.54631 -61.29966 66 ft 3 kts 124°
2026-04-23 01:06 15.54618 -61.29965 66 ft 1 kts 219°
2026-04-23 01:06 15.54612 -61.29979 67 ft 0 kts 250°